Showing default

KAZEOSAT 2, 40010

Orbit data source: Space-Track

KAZEOSAT 2, 40010 is a payload satellite owned by Kazkosmos (KZ) in SSO that was launched on Thu, 19 Jun 2014 UTC via a DNEPR launch vehicle from the Orenburg, Russia (OREN). Payload-class satellites include a variety of spacecraft equipped with specific instruments for various scientific and technological missions. These include communications satellites like Starlink; space stations such as the ISS; scientific satellites like the Hubble; Earth observation satellites from companies like Planet Labs, Umbra, and HawkEye 360; GPS; miniature CubeSats for education and research; and military/defense satellites.

Loading next visibility...
Identifier
40010, 2014-033A
Orbit
SSO
Last TLE update
9 hours ago
Origin
Manufacturer
SSTL (Astrium)
Mission
Operational Civil Imaging
Bus & Motor
SSTL-150, AOCS
Mass
177 kg wet, 177 kg dry
Launch date (UTC)
2014-06-19 (11 years ago)
Launch vehicle
DNEPR
Launch site
Orenburg, Russia (OREN)
Object type
Payload
Rocket body
Debris
Shape & HBR
Box, 3 m
Radar Cross Section
1.500 m², Medium (>0.1 m² and < 1m²)

Expand to show TLE details & history

TLE from 9 hours ago
0 KAZEOSAT 2
1 40010U 14033A   25183.89591686  .00000459  00000-0  60035-4 0  9993
2 40010  97.5720  36.4650 0009650  41.5525 318.6423 14.84785756597118
Epoch: 2025-07-02T21:30Z
TLE epoch observation values (Epoch: 2025-07-02T21:30:07.216Z)
Latitude
0.00003°
Longitude
152.76448°
Altitude
612.233 km
Speed
7.556 km/s
True Right ascension
02h 25m 51s
True Declination
0° 00' 00"
Sunlit
Object was in daylight at epoch
Visualization orbit readout
Latitude
63.06622°
Longitude
-11.81172°
Altitude
623.432 km
Speed
7.554 km/s
Apparent Right ascension
08h 27m 23s
Apparent Declination
35° 40' 36"
Sunlit
Object is in daylight
Visualization observer readout
Local Sidereal Time
17:52:09
Azimuth
329.183° NNW
Elevation
-6.388°
Doppler factor
1
Orbital elements
Apogee altitude
618.023 km
Perigee altitude
604.534 km
Semi-major axis
6,989.415 km
Eccentricity
0.00097
Inclination
97.572°
RAAN
36.465°
Arg. of periapsis
41.5525°
True anomaly
Unknown
Mean anomaly
318.6423°
Eccentric anomaly
Unknown
Mean motion
3.71434 °/min
Orbital period
96.92 mins
BSTAR
0.000060035
Loading maneuver chart data...
Loading SW <> Apogee altitude chart data...
Loading historical data...
Loading historical data...
Loading historical data...
Loading historical data...
Loading historical data...
Loading historical data...
Loading historical data...

KAZEOSAT 2 Visibility forecast

Observer location: undefined°, undefined°

Span
Click to sort rows by Start time (UTC) header in descending order
Start Az.
Max El. time (UTC)
Max El. Az.
Max El.
End time (UTC)
End Az.
7 mins2025-07-03 13:48:31.933Z142.123° SSE2025-07-03 13:51:31.933Z80.969° E35.794°2025-07-03 13:55:31.933Z1.219° NNE
7 mins2025-07-04 03:11:31.933Z6.076° NNE2025-07-04 03:14:31.933Z261.909° W43.761°2025-07-04 03:18:31.933Z199.576° SSW
|